RYR56XP EPGD-EPLB

Flight info

Callsign RYR56XP
Flight time 0h 54m
Altitude 19000
Route IRLUN N133 BIBKA Z96 LASGU/N0428F350 N191 SORIX N195 VENES
Aircraft B738/M-SDE3FGILRWY/SB1

Departure

Time 2026-05-04 22:28
Airport Gdańsk Lech Wałęsa Airport (EPGD)

Arrival

Time 2026-05-04 23:23
Airport Lublin Airport (EPLB)
Time Latitude Longitude Altitude Speed Heading
2026-05-04 22:03 54.38023 18.46790 494 ft 0 kts 23°
2026-05-04 22:20 54.38011 18.46781 494 ft 2 kts 23°
2026-05-04 22:20 54.37997 18.46771 494 ft 2 kts 23°
2026-05-04 22:20 54.37983 18.46760 494 ft 2 kts 36°
2026-05-04 22:20 54.37972 18.46741 494 ft 2 kts 54°
2026-05-04 22:21 54.37965 18.46719 493 ft 2 kts 73°
2026-05-04 22:21 54.37964 18.46694 493 ft 2 kts 91°
2026-05-04 22:21 54.37966 18.46669 494 ft 1 kts 109°
2026-05-04 22:21 54.37968 18.46660 494 ft 1 kts 115°
2026-05-04 22:22 54.37969 18.46657 494 ft 0 kts 114°
2026-05-04 22:24 54.37958 18.46699 493 ft 7 kts 114°
2026-05-04 22:24 54.37927 18.46827 493 ft 15 kts 112°
2026-05-04 22:24 54.37861 18.46972 494 ft 14 kts 153°
2026-05-04 22:24 54.37815 18.47105 494 ft 11 kts 111°
2026-05-04 22:25 54.37782 18.47244 494 ft 15 kts 112°
2026-05-04 22:25 54.37734 18.47440 494 ft 20 kts 113°
2026-05-04 22:25 54.37670 18.47688 494 ft 25 kts 112°
2026-05-04 22:25 54.37594 18.47992 494 ft 29 kts 113°
2026-05-04 22:26 54.37506 18.48346 494 ft 33 kts 112°
2026-05-04 22:26 54.37416 18.48699 494 ft 30 kts 111°
2026-05-04 22:26 54.37342 18.49004 494 ft 20 kts 113°
2026-05-04 22:26 54.37286 18.49137 494 ft 11 kts 164°
2026-05-04 22:27 54.37220 18.49118 494 ft 8 kts 200°
2026-05-04 22:27 54.37176 18.49086 494 ft 5 kts 208°
2026-05-04 22:27 54.37162 18.49036 494 ft 6 kts 270°
2026-05-04 22:27 54.37181 18.48929 494 ft 14 kts 294°
2026-05-04 22:28 54.37290 18.48485 494 ft 74 kts 293°
2026-05-04 22:28 54.37576 18.47331 494 ft 135 kts 292°
2026-05-04 22:28 54.38016 18.45633 674 ft 167 kts 292°
2026-05-04 22:28 54.38451 18.43867 1500 ft 158 kts 291°
2026-05-04 22:29 54.38850 18.42146 2198 ft 158 kts 292°
2026-05-04 22:29 54.39257 18.40431 2793 ft 157 kts 292°
2026-05-04 22:29 54.39707 18.38656 3275 ft 164 kts 292°
2026-05-04 22:29 54.40128 18.36917 3942 ft 159 kts 291°
2026-05-04 22:30 54.40593 18.35029 4176 ft 183 kts 292°
2026-05-04 22:30 54.41108 18.32979 4704 ft 191 kts 291°
2026-05-04 22:30 54.41651 18.30790 5065 ft 209 kts 291°
2026-05-04 22:30 54.42228 18.28426 5624 ft 218 kts 291°
2026-05-04 22:31 54.42781 18.25994 6286 ft 221 kts 284°
2026-05-04 22:31 54.42931 18.23415 7001 ft 222 kts 262°
2026-05-04 22:31 54.42422 18.20925 7692 ft 226 kts 242°
2026-05-04 22:31 54.41498 18.18771 8420 ft 231 kts 229°
2026-05-04 22:32 54.40151 18.17187 9120 ft 240 kts 208°
2026-05-04 22:32 54.38616 18.16137 9841 ft 243 kts 206°
2026-05-04 22:32 54.36991 18.15336 10560 ft 250 kts 194°
2026-05-04 22:32 54.35230 18.15397 11252 ft 263 kts 173°
2026-05-04 22:33 54.33512 18.16660 11771 ft 284 kts 150°
2026-05-04 22:33 54.31988 18.18996 12246 ft 303 kts 139°
2026-05-04 22:33 54.30507 18.21692 12685 ft 319 kts 137°
2026-05-04 22:33 54.28943 18.24518 13136 ft 332 kts 139°
2026-05-04 22:34 54.27119 18.26978 13544 ft 341 kts 155°
2026-05-04 22:34 54.24946 18.28700 13989 ft 350 kts 163°
2026-05-04 22:34 54.22652 18.30111 14644 ft 356 kts 165°
2026-05-04 22:34 54.20306 18.31498 15395 ft 360 kts 166°
2026-05-04 22:35 54.17952 18.32942 16144 ft 364 kts 165°
2026-05-04 22:35 54.15589 18.34452 16909 ft 367 kts 164°
2026-05-04 22:35 54.13205 18.36019 17599 ft 371 kts 164°
2026-05-04 22:35 54.10796 18.37628 18311 ft 374 kts 164°
2026-05-04 22:36 54.08359 18.39266 18835 ft 378 kts 163°
2026-05-04 22:36 54.05897 18.40922 18952 ft 381 kts 163°
2026-05-04 22:36 54.03452 18.42569 18943 ft 377 kts 163°
2026-05-04 22:36 54.01016 18.44207 18940 ft 378 kts 163°
2026-05-04 22:37 53.98541 18.45865 18939 ft 377 kts 163°
2026-05-04 22:37 53.96121 18.47484 18937 ft 378 kts 163°
2026-05-04 22:37 53.93663 18.49124 18937 ft 379 kts 163°
2026-05-04 22:37 53.91213 18.50759 18938 ft 377 kts 163°
2026-05-04 22:38 53.88751 18.52399 18941 ft 379 kts 163°
2026-05-04 22:38 53.86292 18.54034 18937 ft 377 kts 163°
2026-05-04 22:38 53.83833 18.55667 18939 ft 377 kts 163°
2026-05-04 22:38 53.81396 18.57282 18938 ft 377 kts 163°
2026-05-04 22:39 53.78961 18.58895 18934 ft 377 kts 163°
2026-05-04 22:39 53.76500 18.60522 18936 ft 378 kts 163°
2026-05-04 22:39 53.74060 18.62148 18936 ft 378 kts 162°
2026-05-04 22:39 53.71650 18.63845 18938 ft 378 kts 161°
2026-05-04 22:40 53.69206 18.65632 18941 ft 379 kts 162°
2026-05-04 22:40 53.66790 18.67419 18938 ft 379 kts 161°
2026-05-04 22:40 53.64347 18.69225 18931 ft 379 kts 161°
2026-05-04 22:40 53.61923 18.71007 18936 ft 378 kts 161°
2026-05-04 22:41 53.59522 18.72761 18937 ft 379 kts 162°
2026-05-04 22:41 53.57098 18.74520 18933 ft 379 kts 162°
2026-05-04 22:41 53.54686 18.76266 18927 ft 378 kts 162°
2026-05-04 22:41 53.52240 18.78026 18928 ft 378 kts 162°
2026-05-04 22:42 53.49793 18.79580 18927 ft 376 kts 166°
2026-05-04 22:42 53.47307 18.80933 18926 ft 374 kts 168°
2026-05-04 22:42 53.44815 18.82190 18922 ft 374 kts 168°
2026-05-04 22:42 53.42301 18.83439 18929 ft 374 kts 168°
2026-05-04 22:43 53.39811 18.84692 18923 ft 374 kts 168°
2026-05-04 22:43 53.37323 18.85964 18925 ft 375 kts 167°
2026-05-04 22:43 53.34815 18.87263 18925 ft 374 kts 167°
2026-05-04 22:43 53.32338 18.88555 18921 ft 375 kts 167°
2026-05-04 22:44 53.29848 18.89859 18924 ft 375 kts 167°
2026-05-04 22:44 53.27329 18.91183 18927 ft 375 kts 166°
2026-05-04 22:44 53.24903 18.92826 18926 ft 380 kts 157°
2026-05-04 22:44 53.22765 18.95460 18932 ft 389 kts 137°
2026-05-04 22:45 53.21212 18.99246 18925 ft 398 kts 118°
2026-05-04 22:45 53.20193 19.08329 18929 ft 404 kts 90°
2026-05-04 22:45 53.20379 19.12992 18928 ft 404 kts 87°
2026-05-04 22:46 53.20371 19.17637 18926 ft 401 kts 98°
2026-05-04 22:46 53.19667 19.22116 18940 ft 400 kts 115°
2026-05-04 22:46 53.18310 19.26160 19483 ft 401 kts 128°
2026-05-04 22:46 53.16562 19.29801 20322 ft 398 kts 134°
2026-05-04 22:47 53.14655 19.33069 20949 ft 398 kts 142°
2026-05-04 22:47 53.12424 19.35810 21554 ft 397 kts 152°
2026-05-04 22:47 53.09958 19.37843 22106 ft 397 kts 162°
2026-05-04 22:47 53.07307 19.39109 22698 ft 396 kts 172°
2026-05-04 22:48 53.04635 19.40210 23241 ft 403 kts 165°
2026-05-04 22:48 53.02027 19.42065 23815 ft 410 kts 155°
2026-05-04 22:48 52.99546 19.44538 24418 ft 415 kts 149°
2026-05-04 22:48 52.97185 19.47275 24951 ft 420 kts 147°
2026-05-04 22:49 52.94830 19.50186 25478 ft 424 kts 146°
2026-05-04 22:49 52.92479 19.53174 25994 ft 428 kts 145°
2026-05-04 22:49 52.90120 19.56194 26516 ft 431 kts 145°
2026-05-04 22:49 52.87654 19.59340 26982 ft 435 kts 145°
2026-05-04 22:50 52.85231 19.62410 27482 ft 438 kts 145°
2026-05-04 22:50 52.82807 19.65462 27983 ft 441 kts 146°
2026-05-04 22:50 52.80332 19.68559 28448 ft 444 kts 146°
2026-05-04 22:50 52.77860 19.71640 28896 ft 447 kts 146°
2026-05-04 22:51 52.75348 19.74762 29370 ft 449 kts 146°
2026-05-04 22:51 52.72868 19.77835 29953 ft 448 kts 146°
2026-05-04 22:51 52.70401 19.80892 30638 ft 445 kts 146°
2026-05-04 22:51 52.67987 19.84137 31259 ft 444 kts 142°
2026-05-04 22:52 52.65721 19.87543 31752 ft 445 kts 139°
2026-05-04 22:52 52.63489 19.91114 32301 ft 444 kts 138°
2026-05-04 22:52 52.61285 19.94725 32812 ft 444 kts 138°
2026-05-04 22:52 52.59105 19.98309 33266 ft 444 kts 138°
2026-05-04 22:53 52.56908 20.01896 33775 ft 442 kts 138°
2026-05-04 22:53 52.54722 20.05433 34204 ft 443 kts 138°
2026-05-04 22:53 52.52504 20.08993 34640 ft 442 kts 139°
2026-05-04 22:53 52.50292 20.12518 34934 ft 444 kts 139°
2026-05-04 22:54 52.45827 20.19588 34935 ft 441 kts 139°
2026-05-04 22:54 52.41403 20.26557 34935 ft 441 kts 138°
2026-05-04 22:55 52.36956 20.33535 34934 ft 441 kts 139°
2026-05-04 22:55 52.32527 20.40459 34935 ft 442 kts 139°
2026-05-04 22:56 52.28061 20.47421 34939 ft 442 kts 138°
2026-05-04 22:56 52.23588 20.54375 34936 ft 442 kts 138°
2026-05-04 22:57 52.19131 20.61284 34935 ft 442 kts 138°
2026-05-04 22:57 52.14673 20.68173 34931 ft 442 kts 139°
2026-05-04 22:58 52.10217 20.75041 34673 ft 435 kts 139°
2026-05-04 22:58 52.08063 20.78358 34319 ft 428 kts 139°
2026-05-04 22:58 52.05895 20.81693 33971 ft 422 kts 139°
2026-05-04 22:59 52.03784 20.84931 33527 ft 421 kts 139°
2026-05-04 22:59 52.01648 20.88200 33044 ft 425 kts 139°
2026-05-04 22:59 51.99495 20.91490 32543 ft 424 kts 139°
2026-05-04 22:59 51.97346 20.94771 32046 ft 421 kts 139°
2026-05-04 23:00 51.95222 20.98010 31556 ft 417 kts 139°
2026-05-04 23:00 51.93119 21.01214 31069 ft 414 kts 138°
2026-05-04 23:00 51.91010 21.04422 30585 ft 411 kts 138°
2026-05-04 23:00 51.88947 21.07558 30109 ft 408 kts 139°
2026-05-04 23:01 51.86865 21.10716 29623 ft 404 kts 138°
2026-05-04 23:01 51.84818 21.13817 29145 ft 401 kts 138°
2026-05-04 23:01 51.82783 21.16895 28672 ft 398 kts 138°
2026-05-04 23:01 51.80758 21.19953 28200 ft 395 kts 138°
2026-05-04 23:02 51.78774 21.22947 27737 ft 391 kts 138°
2026-05-04 23:02 51.76793 21.25933 27267 ft 388 kts 138°
2026-05-04 23:02 51.74832 21.28886 26808 ft 385 kts 138°
2026-05-04 23:02 51.72872 21.31833 26350 ft 382 kts 139°
2026-05-04 23:03 51.70941 21.34731 25898 ft 379 kts 139°
2026-05-04 23:03 51.69027 21.37602 25450 ft 376 kts 138°
2026-05-04 23:03 51.67114 21.40444 25003 ft 372 kts 139°
2026-05-04 23:03 51.65145 21.43093 24568 ft 368 kts 144°
2026-05-04 23:04 51.63030 21.45432 24118 ft 363 kts 149°
2026-05-04 23:04 51.60892 21.47528 23678 ft 360 kts 151°
2026-05-04 23:04 51.58722 21.49563 23238 ft 358 kts 152°
2026-05-04 23:04 51.56578 21.51556 22801 ft 355 kts 152°
2026-05-04 23:05 51.54452 21.53543 22370 ft 353 kts 152°
2026-05-04 23:05 51.52333 21.55538 21930 ft 351 kts 152°
2026-05-04 23:05 51.50218 21.57539 21501 ft 348 kts 152°
2026-05-04 23:05 51.48146 21.59506 21070 ft 346 kts 152°
2026-05-04 23:06 51.46074 21.61479 20638 ft 344 kts 152°
2026-05-04 23:06 51.44031 21.63425 20333 ft 338 kts 152°
2026-05-04 23:06 51.42005 21.65356 20075 ft 332 kts 153°
2026-05-04 23:06 51.40013 21.67253 19822 ft 331 kts 153°
2026-05-04 23:07 51.38037 21.69130 19502 ft 331 kts 153°
2026-05-04 23:07 51.36066 21.71005 19104 ft 329 kts 153°
2026-05-04 23:07 51.34111 21.72865 18698 ft 326 kts 153°
2026-05-04 23:07 51.32157 21.74725 18294 ft 324 kts 153°
2026-05-04 23:08 51.30228 21.76558 17892 ft 321 kts 153°
2026-05-04 23:08 51.28328 21.78361 17492 ft 319 kts 153°
2026-05-04 23:08 51.26413 21.80176 17094 ft 317 kts 153°
2026-05-04 23:08 51.24534 21.81955 16700 ft 315 kts 153°
2026-05-04 23:09 51.22626 21.83760 16299 ft 313 kts 153°
2026-05-04 23:09 51.20763 21.85520 15922 ft 310 kts 153°
2026-05-04 23:09 51.18910 21.87283 15528 ft 309 kts 152°
2026-05-04 23:09 51.17210 21.89359 15139 ft 312 kts 138°
2026-05-04 23:10 51.16025 21.92267 14743 ft 318 kts 113°
2026-05-04 23:10 51.15649 21.95722 14366 ft 320 kts 91°
2026-05-04 23:10 51.15906 21.99263 14020 ft 319 kts 81°
2026-05-04 23:10 51.16330 22.02702 13625 ft 318 kts 79°
2026-05-04 23:11 51.16786 22.06155 13255 ft 316 kts 79°
2026-05-04 23:11 51.17236 22.09568 12880 ft 315 kts 79°
2026-05-04 23:11 51.17678 22.12972 12504 ft 313 kts 79°
2026-05-04 23:11 51.18111 22.16363 12142 ft 311 kts 79°
2026-05-04 23:12 51.18538 22.19750 11773 ft 310 kts 79°
2026-05-04 23:12 51.18957 22.23090 11406 ft 308 kts 79°
2026-05-04 23:12 51.19370 22.26390 11039 ft 306 kts 79°
2026-05-04 23:12 51.19785 22.29718 10685 ft 304 kts 79°
2026-05-04 23:13 51.20195 22.33011 10324 ft 304 kts 79°
2026-05-04 23:13 51.20604 22.36303 9953 ft 302 kts 79°
2026-05-04 23:13 51.21028 22.39543 9761 ft 294 kts 76°
2026-05-04 23:13 51.21737 22.42548 9384 ft 293 kts 58°
2026-05-04 23:14 51.23017 22.45042 9052 ft 289 kts 42°
2026-05-04 23:14 51.24516 22.47215 8702 ft 287 kts 39°
2026-05-04 23:14 51.25940 22.49211 8412 ft 284 kts 40°
2026-05-04 23:14 51.27400 22.51342 8087 ft 284 kts 41°
2026-05-04 23:15 51.28825 22.53507 7730 ft 283 kts 42°
2026-05-04 23:15 51.30156 22.55827 7387 ft 282 kts 52°
2026-05-04 23:15 51.31004 22.58645 7067 ft 281 kts 75°
2026-05-04 23:15 51.31325 22.61689 6757 ft 279 kts 83°
2026-05-04 23:16 51.31525 22.64784 6426 ft 278 kts 83°
2026-05-04 23:16 51.31744 22.67883 6105 ft 277 kts 83°
2026-05-04 23:16 51.31997 22.70937 5759 ft 276 kts 82°
2026-05-04 23:16 51.32268 22.73939 5441 ft 274 kts 81°
2026-05-04 23:17 51.32553 22.76983 5121 ft 273 kts 81°
2026-05-04 23:17 51.32832 22.79956 4812 ft 272 kts 81°
2026-05-04 23:17 51.33112 22.82955 4473 ft 272 kts 81°
2026-05-04 23:17 51.33384 22.85880 4202 ft 266 kts 81°
2026-05-04 23:18 51.33611 22.88790 4121 ft 253 kts 86°
2026-05-04 23:18 51.33470 22.91508 3956 ft 244 kts 109°
2026-05-04 23:18 51.32531 22.93673 3707 ft 235 kts 146°
2026-05-04 23:18 51.31120 22.94890 3431 ft 231 kts 158°
2026-05-04 23:19 51.29624 22.95713 3181 ft 223 kts 179°
2026-05-04 23:19 51.28194 22.95132 2986 ft 208 kts 219°
2026-05-04 23:19 51.27311 22.93461 2855 ft 194 kts 245°
2026-05-04 23:19 51.26894 22.91443 2676 ft 186 kts 257°
2026-05-04 23:20 51.26603 22.89454 2476 ft 181 kts 257°
2026-05-04 23:20 51.26325 22.87550 2301 ft 174 kts 257°
2026-05-04 23:20 51.26073 22.85764 2152 ft 157 kts 257°
2026-05-04 23:20 51.25844 22.84149 2012 ft 143 kts 257°
2026-05-04 23:21 51.25628 22.82626 1872 ft 136 kts 257°
2026-05-04 23:21 51.25419 22.81163 1674 ft 134 kts 257°
2026-05-04 23:21 51.25211 22.79694 1493 ft 136 kts 257°
2026-05-04 23:21 51.24999 22.78215 1309 ft 138 kts 256°
2026-05-04 23:22 51.24783 22.76726 1138 ft 138 kts 256°
2026-05-04 23:22 51.24565 22.75205 935 ft 140 kts 256°
2026-05-04 23:22 51.24356 22.73700 747 ft 141 kts 255°
2026-05-04 23:22 51.24146 22.72194 643 ft 132 kts 256°
2026-05-04 23:23 51.23970 22.71026 639 ft 72 kts 257°
2026-05-04 23:23 51.23904 22.70564 639 ft 32 kts 258°
2026-05-04 23:23 51.23879 22.70341 639 ft 3 kts 265°
2026-05-04 23:23 51.23872 22.70340 639 ft 1 kts 132°
2026-05-04 23:24 51.23877 22.70395 639 ft 10 kts 76°
2026-05-04 23:24 51.23904 22.70568 639 ft 21 kts 76°
2026-05-04 23:24 51.23941 22.70830 639 ft 23 kts 77°
2026-05-04 23:24 51.23976 22.71067 639 ft 20 kts 77°
2026-05-04 23:25 51.23994 22.71262 639 ft 15 kts 98°
2026-05-04 23:25 51.23938 22.71381 639 ft 12 kts 160°
2026-05-04 23:25 51.23864 22.71410 639 ft 9 kts 167°
2026-05-04 23:25 51.23808 22.71430 639 ft 6 kts 168°
2026-05-04 23:26 51.23773 22.71442 639 ft 4 kts 168°
2026-05-04 23:26 51.23734 22.71446 639 ft 7 kts 199°
2026-05-04 23:26 51.23713 22.71406 639 ft 2 kts 225°
2026-05-04 23:26 51.23703 22.71406 639 ft 1 kts 161°
2026-05-04 23:27 51.23681 22.71416 639 ft 3 kts 166°
2026-05-04 23:27 51.23660 22.71424 639 ft 3 kts 168°
2026-05-04 23:27 51.23645 22.71429 639 ft 0 kts 167°
2026-05-04 23:27 51.23641 22.71431 639 ft 0 kts 167°